Location: Milton
(43.5183°N, 79.8775°W)
Time: 13:23:04
(UTC+00:00)

ESTCUBE 1 - Pass Details

Date: 08 April 2023
Orbit: 640 x 654 km, 97.9° (Epoch: 29 May)

Event Time Altitude Azimuth Distance (km) Brightness Sun altitude
Exits shadow 04:24:30 12° 307° (NW) 1,919 ? -37.8°
Drops below altitude 10° 04:25:05 10° 313° (NW) 2,071 ? -37.8°
Sets 04:27:55 0° 332° (NNW) 2,987 ? -37.9°
